period_start,C,m1,H,J0,J1,J2,J3,J4,J5,JA,JB,JC,JD,JJ,JK,JN,#
2016-02-17 00:01:15,0.05,1.15,0.00,18.08,21.94,25.90,14.72,47.38,1014.11,2055.71,3124.47,2877.84,3229.19,600.01,604.62,20.39,0000 0000 0000 0000 000000
2016-02-17 00:06:16,0.16,1.15,0.00,18.09,21.94,25.88,14.73,47.52,1014.15,2055.64,3121.88,2876.07,3227.39,599.65,604.29,20.44,0000 0000 0000 0000 000000
2016-02-17 00:11:18,0.31,1.17,0.00,18.10,21.95,25.88,14.81,47.59,1014.06,2055.66,3115.97,2872.32,3223.14,600.29,604.76,20.49,0000 0000 0000 0000 000000
2016-02-17 00:16:19,0.43,1.19,0.00,18.10,21.95,25.91,14.76,47.60,1013.83,2055.68,3107.63,2867.03,3217.23,600.34,604.73,20.54,0000 0000 0000 0000 000000
2016-02-17 00:21:20,0.35,1.21,0.00,18.10,21.95,25.93,14.72,47.52,1013.71,2055.44,3099.20,2861.59,3211.22,599.94,604.31,20.59,0000 0000 0000 0000 000000
2016-02-17 00:26:21,0.50,1.23,0.00,18.10,21.95,25.90,14.78,47.67,1013.70,2055.23,3089.28,2855.20,3204.17,600.04,604.35,20.64,0000 0000 0000 0000 000000
2016-02-17 00:31:22,0.40,1.25,0.00,18.09,21.96,25.87,14.79,47.73,1013.69,2055.14,3079.99,2849.35,3197.69,600.34,604.64,20.69,0000 0000 0000 0000 000000
2016-02-17 00:36:23,0.47,1.27,0.00,18.09,21.96,25.90,14.81,47.72,1013.69,2055.05,3071.07,2843.57,3191.34,599.98,604.32,20.74,0000 0000 0000 0000 000000
2016-02-17 00:41:24,0.30,1.29,0.00,18.09,21.97,25.91,14.78,47.66,1013.69,2055.04,3063.31,2838.56,3185.75,600.01,604.33,20.79,0000 0000 0000 0000 000000
2016-02-17 00:46:26,0.09,1.30,0.00,18.10,21.97,25.90,14.75,47.72,1013.69,2055.05,3061.00,2837.13,3184.16,600.26,604.58,20.84,0000 0000 0000 0000 000000
2016-02-17 00:51:27,0.11,1.31,0.00,18.08,21.97,25.92,14.76,47.63,1013.68,2055.05,3058.72,2835.83,3182.62,600.10,604.33,20.89,0000 0000 0000 0000 000000
2016-02-17 00:56:28,0.19,1.32,0.00,18.08,21.97,25.87,14.68,47.67,1013.61,2055.03,3055.11,2833.67,3180.06,599.75,604.07,20.94,0000 0000 0000 0000 000000
2016-02-17 01:01:30,0.08,1.32,0.00,18.11,21.97,25.92,14.75,47.61,1013.46,2055.04,3052.93,2832.29,3178.49,599.92,603.99,20.99,0000 0000 0000 0000 000000
2016-02-17 01:06:31,0.05,1.32,0.00,18.09,21.99,25.94,14.78,47.68,1013.41,2055.02,3051.69,2831.79,3177.74,600.17,604.42,21.04,0000 0000 0000 0000 000000
2016-02-17 01:11:32,0.07,1.33,0.00,18.09,21.99,25.92,14.75,47.76,1013.30,2055.03,3049.99,2830.93,3176.68,599.92,603.94,21.09,0000 0000 0000 0000 000000
2016-02-17 01:16:33,0.06,1.33,0.00,18.12,21.99,25.94,14.77,47.81,1013.22,2055.01,3048.62,2830.08,3175.83,600.34,604.34,21.14,0000 0000 0000 0000 000000
2016-02-17 01:21:34,0.03,1.33,0.00,18.13,21.99,25.89,14.82,47.81,1013.22,2055.03,3047.52,2829.97,3175.04,600.06,604.13,21.19,0000 0000 0000 0000 000000
2016-02-17 01:26:36,0.05,1.34,0.00,18.14,21.99,25.94,14.80,47.80,1013.21,2055.01,3046.45,2829.30,3174.43,600.20,604.22,21.24,0000 0000 0000 0000 000000
2016-02-17 01:31:37,0.04,1.34,0.00,18.15,21.99,25.90,14.71,47.71,1013.20,2055.02,3045.24,2828.86,3173.71,600.05,604.02,21.29,0000 0000 0000 0000 000000
2016-02-17 01:36:38,0.04,1.34,0.00,18.17,22.00,25.96,14.76,47.85,1013.20,2055.02,3044.10,2828.09,3173.02,599.79,603.64,21.34,0000 0000 0000 0000 000000
2016-02-17 01:41:40,0.03,1.34,0.00,18.17,22.01,25.96,14.73,47.64,1013.20,2055.02,3043.04,2827.99,3172.37,600.25,603.92,21.39,0000 0000 0000 0000 000000
2016-02-17 01:46:41,0.06,1.35,0.00,18.19,22.02,25.94,14.78,47.93,1013.20,2055.01,3041.91,2827.31,3171.77,599.99,603.87,21.44,0000 0000 0000 0000 000000
2016-02-17 01:51:43,0.03,1.35,0.00,18.18,22.02,25.98,14.76,47.83,1013.20,2055.00,3040.77,2826.93,3171.02,600.28,604.30,21.49,0000 0000 0000 0000 000000
2016-02-17 01:56:44,0.06,1.35,0.00,18.19,22.02,25.97,14.69,47.77,1013.20,2055.00,3039.70,2826.16,3170.26,599.98,603.79,21.54,0000 0000 0000 0000 000000
2016-02-17 02:01:45,0.03,1.35,0.00,18.19,22.04,25.99,14.78,47.77,1013.20,2055.00,3038.47,2825.91,3169.55,600.06,603.89,21.59,0000 0000 0000 0000 000000
2016-02-17 02:06:47,0.04,1.35,0.00,18.20,22.04,25.98,14.77,47.95,1013.20,2055.00,3037.46,2825.14,3168.99,600.05,603.78,21.64,0000 0000 0000 0000 000000
2016-02-17 02:11:48,0.02,1.36,0.00,18.23,22.04,25.94,14.79,47.75,1013.20,2055.00,3036.70,2825.00,3168.40,600.11,603.88,21.69,0000 0000 0000 0000 000000
2016-02-17 02:16:49,0.03,1.36,0.00,18.26,22.05,25.97,14.68,47.83,1013.20,2055.00,3035.69,2824.80,3167.91,599.87,603.45,21.74,0000 0000 0000 0000 000000
2016-02-17 02:21:50,0.08,1.36,0.00,18.28,22.07,25.97,14.74,47.91,1013.19,2055.00,3034.13,2823.86,3166.82,600.12,603.56,21.79,0000 0000 0000 0000 000000
2016-02-17 02:26:51,0.05,1.37,0.00,18.29,22.07,25.97,14.69,47.92,1013.16,2055.00,3032.78,2823.06,3165.96,599.76,603.43,21.84,0000 0000 0000 0000 000000
2016-02-17 02:31:53,0.06,1.37,0.00,18.29,22.08,26.02,14.66,47.80,1013.16,2054.99,3031.46,2822.48,3165.00,599.77,603.35,21.89,0000 0000 0000 0000 000000
2016-02-17 02:36:54,0.09,1.37,0.00,18.30,22.09,26.02,14.71,47.92,1013.18,2054.98,3029.48,2821.51,3163.73,599.87,603.46,21.94,0000 0000 0000 0000 000000
2016-02-17 02:41:56,0.07,1.38,0.00,18.30,22.09,26.00,14.71,47.92,1013.09,2054.99,3027.66,2820.64,3162.65,600.09,603.61,21.99,0000 0000 0000 0000 000000
2016-02-17 02:46:57,0.09,1.38,0.00,18.32,22.11,26.09,14.69,47.85,1013.08,2054.98,3025.51,2819.57,3161.30,600.08,603.73,22.04,0000 0000 0000 0000 000000
2016-02-17 02:51:58,0.11,1.39,0.00,18.33,22.12,26.10,14.76,47.91,1012.99,2054.99,3022.98,2818.18,3159.61,599.88,603.38,22.09,0000 0000 0000 0000 000000
2016-02-17 02:56:59,0.08,1.39,0.00,18.33,22.12,26.04,14.75,47.79,1012.82,2054.98,3020.77,2817.03,3158.12,600.47,603.72,22.14,0000 0000 0000 0000 000000
2016-02-17 03:02:00,0.06,1.40,0.00,18.36,22.13,26.09,14.75,47.91,1012.85,2054.98,3019.56,2816.32,3157.19,600.34,603.52,22.19,0000 0000 0000 0000 000000
2016-02-17 03:07:01,0.05,1.40,0.00,18.35,22.14,26.12,14.78,47.80,1012.80,2054.97,3018.23,2815.83,3156.44,600.13,603.38,22.24,0000 0000 0000 0000 000000
2016-02-17 03:12:03,0.07,1.40,0.00,18.35,22.15,26.12,14.69,47.68,1012.76,2054.97,3016.42,2814.93,3155.31,600.11,603.22,22.29,0000 0000 0000 0000 000000
2016-02-17 03:17:03,0.14,1.41,0.00,18.37,22.16,26.13,14.71,47.81,1012.73,2054.98,3013.69,2813.52,3153.50,599.83,603.01,22.34,0000 0000 0000 0000 000000
2016-02-17 03:22:05,0.17,1.41,0.00,18.40,22.17,26.16,14.68,47.70,1012.73,2054.96,3010.28,2811.59,3151.21,599.93,603.11,22.39,0000 0000 0000 0000 000000
2016-02-17 03:27:06,0.29,1.43,0.00,18.42,22.18,26.15,14.72,47.70,1012.71,2054.93,3004.89,2808.23,3147.43,600.34,603.38,22.44,0000 0000 0000 0000 000000
2016-02-17 03:32:07,0.34,1.44,0.00,18.44,22.19,26.15,14.73,47.82,1012.72,2054.76,2997.93,2804.00,3142.55,599.91,602.86,22.49,0000 0000 0000 0000 000000
2016-02-17 03:37:08,0.21,1.46,0.00,18.45,22.19,26.17,14.74,47.81,1012.72,2054.43,2991.82,2800.30,3138.33,600.23,603.24,22.54,0000 0000 0000 0000 000000
2016-02-17 03:42:10,0.16,1.47,0.00,18.47,22.21,26.15,14.73,47.87,1012.72,2054.30,2988.13,2798.22,3135.90,599.94,602.92,22.59,0000 0000 0000 0000 000000
2016-02-17 03:47:11,0.26,1.48,0.00,18.47,22.22,26.18,14.69,47.77,1012.71,2054.27,2983.17,2795.20,3132.65,599.71,602.78,22.64,0000 0000 0000 0000 000000
2016-02-17 03:52:12,0.21,1.49,0.00,18.48,22.23,26.18,14.73,47.83,1012.71,2054.16,2978.17,2792.24,3129.15,600.12,603.13,22.69,0000 0000 0000 0000 000000
2016-02-17 03:57:13,0.07,1.50,0.00,18.51,22.24,26.15,14.66,47.80,1012.71,2054.09,2975.69,2790.90,3127.58,599.92,602.81,22.74,0000 0000 0000 0000 000000
2016-02-17 04:02:14,0.36,1.51,0.00,18.52,22.25,26.22,14.74,47.90,1012.71,2054.04,2970.14,2787.62,3123.69,600.04,602.90,22.80,0000 0000 0000 0000 000000
2016-02-17 04:07:16,0.30,1.53,0.00,18.53,22.27,26.21,14.73,47.83,1012.71,2054.01,2963.03,2783.30,3118.83,600.20,603.06,22.85,0000 0000 0000 0000 000000
2016-02-17 04:12:17,0.24,1.54,0.00,18.56,22.28,26.28,14.73,47.94,1012.71,2054.01,2958.08,2780.35,3115.42,599.77,602.55,22.90,0000 0000 0000 0000 000000
2016-02-17 04:17:18,0.36,1.56,0.00,18.58,22.29,26.25,14.64,47.83,1012.71,2054.01,2951.86,2776.55,3111.02,599.78,602.58,22.95,0000 0000 0000 0000 000000
2016-02-17 04:22:19,0.47,1.57,0.00,18.59,22.31,26.27,14.74,47.94,1012.71,2054.00,2942.94,2770.89,3104.62,600.17,602.92,23.00,0000 0000 0000 0000 000000
2016-02-17 04:27:20,0.28,1.60,0.00,18.60,22.32,26.30,14.73,47.88,1012.71,2054.00,2936.38,2766.88,3099.96,599.85,602.58,23.05,0000 0000 0000 0000 000000
2016-02-17 04:32:22,0.17,1.61,0.00,18.62,22.34,26.33,14.69,47.78,1012.59,2053.99,2932.39,2764.52,3097.27,600.29,602.99,23.10,0000 0000 0000 0000 000000
2016-02-17 04:37:23,0.06,1.61,0.00,18.63,22.34,26.30,14.76,47.92,1012.63,2053.99,2930.40,2763.71,3095.98,600.18,602.77,23.15,0000 0000 0000 0000 000000
2016-02-17 04:42:24,0.05,1.61,0.00,18.63,22.37,26.27,14.67,47.85,1012.70,2053.98,2929.08,2763.03,3095.10,600.05,602.61,23.20,0000 0000 0000 0000 000000
2016-02-17 04:47:26,0.08,1.62,0.00,18.64,22.38,26.31,14.73,48.00,1012.71,2053.97,2927.46,2762.36,3094.08,599.99,602.58,23.25,0000 0000 0000 0000 000000
2016-02-17 04:52:27,0.05,1.62,0.00,18.63,22.39,26.34,14.66,47.86,1012.71,2053.98,2925.87,2761.94,3093.08,599.50,602.19,23.30,0000 0000 0000 0000 000000
2016-02-17 04:57:29,0.07,1.63,0.00,18.64,22.40,26.35,14.79,47.94,1012.71,2053.97,2924.43,2761.14,3092.24,600.52,603.13,23.35,0000 0000 0000 0000 000000
2016-02-17 05:02:30,0.08,1.63,0.00,18.65,22.42,26.34,14.76,47.92,1012.71,2053.97,2922.51,2760.40,3091.14,600.16,602.75,23.40,0000 0000 0000 0000 000000
2016-02-17 05:07:32,0.05,1.63,0.00,18.68,22.42,26.36,14.69,47.91,1012.65,2053.96,2920.72,2759.98,3090.13,599.67,602.29,23.45,0000 0000 0000 0000 000000
2016-02-17 05:12:33,0.04,1.63,0.00,18.70,22.44,26.42,14.70,48.05,1012.66,2053.80,2919.42,2759.23,3089.28,599.54,601.96,23.50,0000 0000 0000 0000 000000
2016-02-17 05:17:34,0.02,1.64,0.00,18.73,22.45,26.43,14.75,47.85,1012.70,2053.66,2918.02,2758.99,3088.57,600.33,602.73,23.55,0000 0000 0000 0000 000000
2016-02-17 05:22:36,0.03,1.64,0.00,18.75,22.47,26.41,14.65,47.92,1012.71,2053.49,2916.69,2758.58,3087.83,599.62,602.00,23.60,0000 0000 0000 0000 000000
2016-02-17 05:27:37,0.02,1.64,0.00,18.77,22.48,26.42,14.72,48.00,1012.72,2053.15,2915.43,2758.02,3087.01,600.11,602.52,23.65,0000 0000 0000 0000 000000
2016-02-17 05:32:39,0.05,1.64,0.00,18.80,22.49,26.47,14.75,48.04,1012.71,2053.05,2913.83,2757.70,3086.13,599.68,602.12,23.70,0000 0000 0000 0000 000000
2016-02-17 05:37:40,0.05,1.65,0.00,18.82,22.50,26.50,14.70,47.87,1012.71,2053.02,2912.37,2757.04,3085.28,599.92,602.25,23.75,0000 0000 0000 0000 000000
2016-02-17 05:42:42,0.07,1.65,0.00,18.84,22.52,26.50,14.74,48.02,1012.71,2053.03,2910.77,2756.69,3084.48,600.02,602.24,23.80,0000 0000 0000 0000 000000
2016-02-17 05:47:43,0.06,1.65,0.00,18.83,22.53,26.47,14.72,48.07,1012.70,2053.02,2909.02,2755.99,3083.46,600.02,602.24,23.85,0000 0000 0000 0000 000000
2016-02-17 05:52:44,0.08,1.66,0.00,18.83,22.54,26.45,14.66,47.91,1012.70,2053.00,2907.20,2755.17,3082.31,599.85,602.08,23.90,0000 0000 0000 0000 000000
2016-02-17 05:57:45,0.09,1.66,0.00,18.84,22.56,26.51,14.68,48.08,1012.71,2053.00,2905.06,2754.30,3080.90,600.05,602.23,23.95,0000 0000 0000 0000 000000
2016-02-17 06:02:47,0.10,1.67,0.00,18.85,22.57,26.55,14.71,48.00,1012.70,2053.00,2902.50,2753.12,3079.42,600.27,602.39,24.00,0000 0000 0000 0000 000000
2016-02-17 06:07:48,0.16,1.67,0.00,18.87,22.59,26.57,14.65,47.94,1012.71,2053.00,2899.56,2751.75,3077.48,599.73,601.87,24.05,0000 0000 0000 0000 000000
2016-02-17 06:12:49,0.20,1.68,0.00,18.88,22.59,26.57,14.72,48.16,1012.71,2052.98,2895.26,2749.50,3074.55,599.79,601.94,24.10,0000 0000 0000 0000 000000
2016-02-17 06:17:50,0.18,1.69,0.00,18.90,22.61,26.57,14.70,47.95,1012.71,2052.97,2891.32,2747.43,3072.00,600.02,602.22,24.15,0000 0000 0000 0000 000000
2016-02-17 06:22:52,0.12,1.70,0.00,18.92,22.62,26.53,14.65,47.80,1012.72,2052.97,2888.35,2746.03,3070.20,599.91,602.08,24.20,0000 0000 0000 0000 000000
2016-02-17 06:27:53,0.08,1.70,0.00,18.92,22.63,26.57,14.64,47.83,1012.79,2052.91,2886.03,2745.01,3068.71,599.90,602.03,24.25,0000 0000 0000 0000 000000
2016-02-17 06:32:54,0.07,1.71,0.00,18.96,22.64,26.57,14.74,47.81,1012.91,2052.80,2884.12,2744.12,3067.49,600.13,602.20,24.30,0000 0000 0000 0000 000000
2016-02-17 06:37:55,0.02,1.71,0.00,18.98,22.66,26.55,14.67,47.65,1013.11,2052.46,2882.41,2743.52,3066.47,600.06,602.21,24.35,0000 0000 0000 0000 000000
2016-02-17 06:42:56,0.07,1.71,0.00,18.98,22.67,26.62,14.63,47.73,1013.18,2052.46,2880.73,2743.01,3065.56,599.90,602.08,24.40,0000 0000 0000 0000 000000
2016-02-17 06:47:57,0.04,1.71,0.00,19.01,22.68,26.65,14.72,47.77,1013.20,2052.26,2879.34,2742.57,3064.76,599.98,602.07,24.45,0000 0000 0000 0000 000000
2016-02-17 06:52:59,0.05,1.72,0.00,19.02,22.69,26.63,14.68,47.81,1013.20,2052.14,2877.62,2741.91,3063.66,599.51,601.63,24.50,0000 0000 0000 0000 000000
2016-02-17 06:58:00,0.07,1.72,0.00,19.04,22.70,26.67,14.70,47.84,1013.22,2052.04,2875.80,2741.09,3062.54,600.13,602.18,24.55,0000 0000 0000 0000 000000
2016-02-17 07:03:02,0.04,1.72,0.00,19.07,22.72,26.65,14.64,47.70,1013.21,2052.02,2874.23,2740.83,3061.78,599.75,601.71,24.60,0000 0000 0000 0000 000000
2016-02-17 07:08:03,0.08,1.73,0.00,19.09,22.73,26.62,14.69,47.72,1013.21,2052.01,2872.41,2740.00,3060.70,600.08,602.07,24.65,0000 0000 0000 0000 000000
2016-02-17 07:13:04,0.11,1.73,0.00,19.10,22.74,26.71,14.70,47.77,1013.22,2052.03,2870.00,2738.99,3059.18,599.63,601.60,24.70,0000 0000 0000 0000 000000
2016-02-17 07:18:05,0.11,1.74,0.00,19.10,22.76,26.69,14.74,47.82,1013.27,2052.01,2867.54,2737.88,3057.66,600.29,602.40,24.75,0000 0000 0000 0000 000000
2016-02-17 07:23:07,0.21,1.75,0.00,19.12,22.77,26.70,14.73,47.80,1013.36,2052.00,2863.74,2735.96,3055.19,600.01,602.09,24.80,0000 0000 0000 0000 000000
2016-02-17 07:28:08,0.19,1.76,0.00,19.11,22.78,26.75,14.68,47.73,1013.46,2052.00,2859.38,2733.61,3052.32,600.34,602.44,24.85,0000 0000 0000 0000 000000
2016-02-17 07:33:09,0.15,1.77,0.00,19.12,22.79,26.75,14.71,47.86,1013.65,2051.99,2856.26,2732.05,3050.26,600.03,602.23,24.90,0000 0000 0000 0000 000000
2016-02-17 07:38:10,0.14,1.77,0.00,19.14,22.80,26.74,14.69,47.79,1013.67,2051.99,2853.16,2730.55,3048.36,600.36,602.55,24.95,0000 0000 0000 0000 000000
2016-02-17 07:43:11,0.11,1.78,0.00,19.14,22.82,26.74,14.73,47.77,1013.68,2051.99,2850.33,2729.20,3046.66,599.90,602.14,25.00,0000 0000 0000 0000 000000
2016-02-17 07:48:13,0.10,1.79,0.00,19.17,22.82,26.77,14.67,47.83,1013.69,2051.96,2847.92,2728.21,3045.18,599.84,601.92,25.05,0000 0000 0000 0000 000000
2016-02-17 07:53:14,0.10,1.79,0.00,19.19,22.84,26.80,14.68,47.85,1013.69,2051.97,2845.44,2727.21,3043.73,599.78,601.80,25.10,0000 0000 0000 0000 000000
2016-02-17 07:58:16,0.09,1.80,0.00,19.20,22.84,26.75,14.69,47.75,1013.69,2051.96,2843.26,2726.19,3042.45,600.36,602.41,25.15,0000 0000 0000 0000 000000
2016-02-17 08:03:17,0.08,1.80,0.00,19.21,22.85,26.76,14.68,47.86,1013.69,2051.93,2841.23,2725.51,3041.29,599.53,601.51,25.20,0000 0000 0000 0000 000000
2016-02-17 08:08:18,0.10,1.81,0.00,19.22,22.87,26.81,14.70,47.83,1013.70,2051.89,2839.04,2724.59,3040.01,599.99,602.01,25.25,0000 0000 0000 0000 000000
2016-02-17 08:13:20,0.08,1.81,0.00,19.23,22.87,26.78,14.66,47.80,1013.70,2051.71,2836.85,2723.65,3038.60,599.80,601.74,25.30,0000 0000 0000 0000 000000
2016-02-17 08:18:21,0.08,1.81,0.00,19.23,22.89,26.82,14.69,47.70,1013.87,2051.56,2834.48,2722.65,3037.12,599.88,601.97,25.35,0000 0000 0000 0000 000000
2016-02-17 08:23:22,0.09,1.82,0.00,19.25,22.89,26.84,14.70,47.79,1014.14,2051.56,2832.24,2721.73,3035.77,599.89,602.08,25.40,0000 0000 0000 0000 000000
2016-02-17 08:28:23,0.05,1.82,0.00,19.28,22.91,26.90,14.70,47.85,1014.17,2051.19,2830.09,2720.82,3034.55,599.89,602.03,25.45,0000 0000 0000 0000 000000
2016-02-17 08:33:24,0.09,1.83,0.00,19.30,22.92,26.89,14.81,47.80,1014.17,2051.06,2827.93,2719.83,3033.08,600.29,602.41,25.50,0000 0000 0000 0000 000000
2016-02-17 08:38:25,0.12,1.83,0.00,19.29,22.93,26.90,14.69,47.93,1014.19,2051.03,2825.30,2718.63,3031.51,599.67,601.82,25.55,0000 0000 0000 0000 000000
2016-02-17 08:43:26,0.10,1.84,0.00,19.29,22.94,26.89,14.74,47.86,1014.23,2051.01,2822.87,2717.59,3030.12,599.96,602.23,25.60,0000 0000 0000 0000 000000
2016-02-17 08:48:28,0.11,1.85,0.00,19.29,22.95,26.90,14.68,47.82,1014.21,2051.00,2820.32,2716.35,3028.46,600.07,602.31,25.65,0000 0000 0000 0000 000000
2016-02-17 08:53:29,0.05,1.85,0.00,19.29,22.97,26.91,14.71,47.92,1014.21,2051.00,2818.51,2715.89,3027.41,600.06,602.21,25.70,0000 0000 0000 0000 000000
2016-02-17 08:58:31,0.09,1.85,0.00,19.31,22.97,26.89,14.71,47.83,1014.44,2051.00,2816.57,2714.98,3026.32,599.94,602.33,25.75,0000 0000 0000 0000 000000
2016-02-17 09:03:32,0.15,1.86,0.00,19.33,22.98,26.91,14.61,47.91,1014.58,2051.00,2813.73,2713.57,3024.46,599.69,601.97,25.80,0000 0000 0000 0000 000000
2016-02-17 09:08:33,0.11,1.87,0.00,19.34,22.99,26.89,14.77,48.05,1014.64,2051.00,2811.27,2712.48,3022.88,600.09,602.33,25.85,0000 0000 0000 0000 000000
2016-02-17 09:13:34,0.08,1.87,0.00,19.36,22.99,26.97,14.75,47.95,1014.66,2051.00,2809.22,2711.74,3021.74,600.36,602.69,25.90,0000 0000 0000 0000 000000
2016-02-17 09:18:35,0.11,1.88,0.00,19.37,23.01,26.97,14.76,47.95,1014.67,2051.00,2806.93,2710.68,3020.37,600.32,602.60,25.95,0000 0000 0000 0000 000000
2016-02-17 09:23:36,0.08,1.88,0.00,19.38,23.02,26.94,14.67,47.78,1014.67,2051.00,2804.72,2709.84,3019.02,599.88,602.06,26.01,0000 0000 0000 0000 000000
2016-02-17 09:28:38,0.08,1.88,0.00,19.37,23.03,27.00,14.70,48.03,1014.67,2050.99,2802.87,2708.99,3017.90,599.75,601.94,26.06,0000 0000 0000 0000 000000
2016-02-17 09:33:39,0.18,1.89,0.00,19.38,23.04,26.99,14.69,47.92,1014.67,2050.98,2799.54,2707.42,3015.84,599.54,601.78,26.11,0000 0000 0000 0000 000000
2016-02-17 09:38:41,0.16,1.90,0.00,19.39,23.05,26.99,14.68,47.83,1014.73,2050.98,2796.23,2705.71,3013.65,599.80,602.10,26.16,0000 0000 0000 0000 000000
2016-02-17 09:43:42,0.19,1.91,0.00,19.39,23.07,26.99,14.66,47.80,1014.84,2050.95,2792.54,2703.72,3011.14,599.94,602.09,26.21,0000 0000 0000 0000 000000
2016-02-17 09:48:43,0.19,1.92,0.00,19.39,23.07,27.02,14.75,48.04,1014.98,2050.89,2788.41,2701.55,3008.51,599.72,602.18,26.26,0000 0000 0000 0000 000000
2016-02-17 09:53:45,0.08,1.93,0.00,19.41,23.08,27.04,14.67,47.93,1015.14,2050.67,2785.46,2700.11,3006.89,599.95,602.49,26.31,0000 0000 0000 0000 000000
2016-02-17 09:58:46,0.10,1.93,0.00,19.41,23.09,27.01,14.65,47.92,1015.15,2050.36,2782.99,2699.04,3005.37,599.59,602.09,26.36,0000 0000 0000 0000 000000
2016-02-17 10:03:47,0.22,1.94,0.00,19.42,23.10,27.02,14.74,47.98,1015.16,2050.17,2778.42,2696.55,3002.42,600.17,602.67,26.41,0000 0000 0000 0000 000000
2016-02-17 10:08:49,0.16,1.95,0.00,19.43,23.10,27.05,14.73,47.89,1015.20,2050.08,2774.70,2694.68,3000.05,600.32,602.80,26.46,0000 0000 0000 0000 000000
2016-02-17 10:13:50,0.20,1.96,0.00,19.44,23.12,27.08,14.75,47.93,1015.19,2050.04,2770.80,2692.63,2997.43,599.78,602.22,26.51,0000 0000 0000 0000 000000
2016-02-17 10:18:51,0.13,1.97,0.00,19.45,23.12,27.08,14.66,47.82,1015.16,2050.02,2767.74,2691.13,2995.44,600.01,602.32,26.56,0000 0000 0000 0000 000000
2016-02-17 10:23:52,0.08,1.97,0.00,19.47,23.12,27.02,14.74,47.96,1015.17,2050.02,2765.35,2690.04,2994.07,599.95,602.20,26.61,0000 0000 0000 0000 000000
2016-02-17 10:28:53,0.03,1.97,0.00,19.45,23.12,27.05,14.66,48.08,1015.40,2050.01,2764.12,2689.99,2993.65,599.89,602.35,26.66,0000 0000 0000 0000 000000
2016-02-17 10:33:55,0.03,1.98,0.00,19.47,23.12,27.06,14.75,47.90,1015.63,2050.01,2762.98,2689.88,2993.02,599.80,602.44,26.71,0000 0000 0000 0000 000000
2016-02-17 10:38:56,0.07,1.98,0.00,19.47,23.14,27.13,14.75,48.06,1015.64,2050.00,2761.79,2689.23,2992.44,600.05,602.64,26.76,0000 0000 0000 0000 000000
2016-02-17 10:43:57,0.03,1.98,0.00,19.48,23.14,27.09,14.76,47.97,1015.64,2050.00,2760.64,2689.02,2991.94,600.19,602.77,26.81,0000 0000 0000 0000 000000
2016-02-17 10:48:58,0.04,1.98,0.00,19.48,23.14,27.10,14.77,48.01,1015.64,2050.00,2759.51,2688.97,2991.11,599.84,602.45,26.86,0000 0000 0000 0000 000000
2016-02-17 10:54:00,0.05,1.99,0.00,19.48,23.14,27.09,14.81,48.02,1015.67,2050.00,2758.39,2688.68,2990.68,600.51,603.24,26.91,0000 0000 0000 0000 000000
2016-02-17 10:59:01,0.04,1.99,0.00,19.47,23.14,27.06,14.63,47.88,1015.86,2050.00,2757.20,2688.04,2990.01,599.78,602.64,26.96,0000 0000 0000 0000 000000
2016-02-17 11:04:02,0.04,1.99,0.00,19.47,23.14,27.05,14.86,48.02,1016.08,2050.00,2755.84,2688.00,2989.36,600.47,603.30,27.01,0000 0000 0000 0000 000000
2016-02-17 11:09:03,0.09,1.99,0.00,19.45,23.14,27.08,14.74,47.99,1016.11,2050.00,2753.98,2687.30,2988.34,599.90,602.86,27.06,0000 0000 0000 0000 000000
2016-02-17 11:14:05,0.19,2.00,0.00,19.44,23.14,27.11,14.74,48.02,1016.13,2050.00,2750.46,2685.40,2985.90,600.01,602.95,27.11,0000 0000 0000 0000 000000
2016-02-17 11:19:06,0.12,2.01,0.00,19.46,23.14,27.06,14.69,48.06,1016.14,2049.99,2747.39,2683.88,2983.95,599.81,602.82,27.16,0000 0000 0000 0000 000000
2016-02-17 11:24:07,0.14,2.02,0.00,19.46,23.14,27.07,14.67,47.97,1016.14,2049.99,2744.77,2682.62,2982.28,599.97,602.86,27.21,0000 0000 0000 0000 000000
2016-02-17 11:29:09,0.19,2.03,0.00,19.45,23.14,27.08,14.68,47.95,1016.24,2049.99,2741.11,2680.68,2979.98,599.97,603.01,27.26,0000 0000 0000 0000 000000
2016-02-17 11:34:10,0.50,2.04,0.00,19.47,23.12,27.05,14.74,47.99,1016.60,2049.98,2733.69,2676.04,2974.61,600.19,603.40,27.31,0000 0000 0000 0000 000000
2016-02-17 11:39:11,0.52,2.07,0.00,19.47,23.12,27.05,14.72,47.82,1016.62,2049.99,2724.03,2669.81,2967.60,599.96,603.39,27.36,0000 0000 0000 0000 000000
2016-02-17 11:44:13,0.29,2.09,0.00,19.46,23.12,27.09,14.69,47.88,1016.62,2049.99,2718.06,2666.26,2963.43,599.76,603.06,27.41,0000 0000 0000 0000 000000
2016-02-17 11:49:14,0.43,2.11,0.00,19.46,23.12,27.03,14.79,48.01,1016.62,2049.98,2711.59,2662.35,2958.94,599.82,603.03,27.46,0000 0000 0000 0000 000000
2016-02-17 11:54:15,1.01,2.15,0.00,19.45,23.12,27.00,14.69,47.95,1016.63,2049.98,2695.55,2651.82,2947.27,599.71,602.97,27.51,0000 0000 0000 0000 000000
2016-02-17 11:59:17,1.15,2.20,0.57,19.46,23.10,27.01,14.73,47.97,1016.68,2049.96,2676.96,2639.37,2933.63,600.02,603.32,27.56,0000 0000 0000 0000 000000
2016-02-17 12:04:18,1.00,2.26,1.00,19.44,23.09,27.04,14.62,47.85,1016.70,2049.94,2659.13,2627.52,2920.54,599.73,603.10,27.61,0000 0000 0000 0000 000000
2016-02-17 12:09:19,0.69,2.30,1.00,19.44,23.09,27.00,14.67,47.81,1016.79,2049.93,2646.29,2619.42,2911.30,599.77,603.15,27.66,0000 0000 0000 0000 000000
2016-02-17 12:14:21,0.76,2.34,1.00,19.44,23.09,26.98,14.69,47.83,1017.06,2049.96,2634.34,2611.88,2902.81,599.86,603.40,27.71,0000 0000 0000 0000 000000
2016-02-17 12:19:22,0.80,2.38,1.00,19.42,23.08,26.97,14.69,47.89,1017.10,2049.96,2619.71,2602.36,2892.29,599.80,603.41,27.76,0000 0000 0000 0000 000000
2016-02-17 12:24:23,0.14,2.40,1.00,19.42,23.07,26.97,14.68,47.98,1017.10,2049.94,2615.22,2599.79,2889.28,599.82,603.49,27.81,0000 0000 0000 0000 000000
2016-02-17 12:29:24,0.13,2.40,1.00,19.40,23.07,27.04,14.73,48.01,1017.10,2049.97,2612.60,2598.63,2887.79,599.92,603.61,27.86,0000 0000 0000 0000 000000
2016-02-17 12:34:26,0.07,2.41,1.00,19.42,23.07,27.00,14.74,48.05,1017.10,2049.96,2610.67,2597.98,2886.58,600.27,603.82,27.91,0000 0000 0000 0000 000000
2016-02-17 12:39:27,0.08,2.41,1.00,19.41,23.07,27.02,14.77,47.94,1017.18,2049.96,2609.11,2597.31,2885.68,600.24,603.78,27.96,0000 0000 0000 0000 000000
2016-02-17 12:44:28,0.26,2.42,1.00,19.41,23.07,27.00,14.81,48.12,1017.47,2049.97,2605.48,2595.20,2883.22,600.53,604.38,28.01,0000 0000 0000 0000 000000
2016-02-17 12:49:30,0.40,2.44,1.00,19.40,23.06,26.99,14.74,48.29,1017.41,2049.98,2598.70,2591.05,2878.63,600.15,603.99,28.06,0000 0000 0000 0000 000000
2016-02-17 12:54:31,0.42,2.46,1.00,19.39,23.07,27.01,14.75,48.21,1017.59,2049.97,2591.33,2586.47,2873.52,600.11,603.99,28.11,0000 0000 0000 0000 000000